Location: Hicks
(37.9226°N, 89.9954°W)
Time: 09:53:01
(UTC+00:00)

ARIANE 5 R/B - Pass Details

Date: 14 December 2025
Orbit: 746 x 792 km, 98.8° (Epoch: 25 January)

Event Time Altitude Azimuth Distance (km) Brightness Sun altitude
Rises 12:34:03 0° 13° (NNE) 3,297 5.7 -6.8°
Reaches altitude 10° 12:36:23 10° 14° (NNE) 2,365 4.9 -6.4°
Maximum altitude 12:41:38 87° 102° (ESE) 798 2.7 -5.5°
Drops below altitude 10° 12:46:49 10° 194° (SSW) 2,343 5.2 -4.6°
Sets 12:49:07 0° 194° (SSW) 3,263 5.9 -4.1°
